Bryce Canyon, UT

10:28 PM MST on December 09, 2019 (GMT -0700)
Bryce Canyon

Weather History for KBCE - October, 2019

Change the Weather History Date:

Thursday, October 24, 2019

  Actual Average Record
Temperature  
Mean Temperature 38 °F -  
Max Temperature 53 °F 54 °F 71 °F (1959)
Min Temperature 25 °F 26 °F 5 °F (1975)
Degree Days  
Heating Degree Days 26    
Moisture  
Dew Point 9 °F    
Average Humidity 33    
Maximum Humidity 55    
Minimum Humidity 14    
Precipitation  
Precipitation 0.00 in - - ()
Sea Level Pressure  
Sea Level Pressure 30.23 in    
Wind  
Wind Speed 12 mph (North)    
Max Wind Speed 21 mph    
Max Gust Speed 30 mph    
Visibility 10 miles    
Events      
Averages and records for this station are not official NWS values.
T = Trace of Precipitation, MM = Missing Value Source: NWS Daily Summary

Daily Weather History Graph

Daily Weather History Graph

Search for Another Location

Airport or City:

Astronomy

Oct. 24, 2019 Rise Set
Actual Time 7:45 AM MDT 6:39 PM MDT
Civil Twilight 7:18 AM MDT 7:06 PM MDT
Nautical Twilight 6:48 AM MDT 7:36 PM MDT
Astronomical Twilight 6:17 AM MDT 8:07 PM MDT
Moon 3:26 AM MDT (10/24) 5:03 PM MDT (10/24)
Length of Visible Light 11h 47m
Length of Day
10h 53m
Waning Crescent, 16% of the Moon is Illuminated
Oct 24
Waning Crescent
Oct 27
New
Nov 4
First Quarter
Nov 12
Full
Nov 19
Last Quarter

Hourly Weather History & Observations

Time (MDT) Temp. Windchill Dew Point Humidity Pressure Visibility Wind Dir Wind Speed Gust Speed Precip Events Conditions
12:53 AM 34.0 °F 26.0 °F 9.0 °F 35% 30.09 in 10.0 mi NNW 10.4 mph - N/A   Clear
1:53 AM 28.9 °F 20.4 °F 10.0 °F 45% 30.10 in 10.0 mi North 9.2 mph - N/A   Clear
2:53 AM 27.0 °F 18.0 °F 10.0 °F 49% 30.12 in 10.0 mi NNW 9.2 mph - N/A   Clear
3:53 AM 28.0 °F 17.5 °F 10.9 °F 49% 30.12 in 10.0 mi North 12.7 mph - N/A   Clear
4:53 AM 30.0 °F 18.7 °F 12.9 °F 49% 30.12 in 10.0 mi North 16.1 mph - N/A   Clear
5:53 AM 28.9 °F 21.1 °F 12.9 °F 51% 30.16 in 10.0 mi NNW 8.1 mph - N/A   Clear
7:53 AM 25.0 °F 19.3 °F 10.9 °F 55% 30.25 in 10.0 mi Variable 4.6 mph - N/A   Clear
8:53 AM 33.1 °F 26.1 °F 12.0 °F 42% 30.25 in 10.0 mi North 8.1 mph - N/A   Clear
9:53 AM 36.0 °F 26.7 °F 14.0 °F 41% 30.25 in 10.0 mi NNE 15.0 mph - N/A   Clear
10:53 AM 39.9 °F 30.8 °F 10.9 °F 31% 30.26 in 10.0 mi NE 18.4 mph 26.5 mph N/A   Clear
11:53 AM 44.1 °F 36.2 °F 7.0 °F 22% 30.25 in 10.0 mi NNE 18.4 mph 24.2 mph N/A   Clear
12:53 PM 46.0 °F 38.3 °F 6.1 °F 20% 30.23 in 10.0 mi NNE 20.7 mph 29.9 mph N/A   Clear
1:53 PM 48.9 °F - 7.0 °F 18% 30.22 in 10.0 mi NE 17.3 mph 23.0 mph N/A   Clear
2:53 PM 51.1 °F - 6.1 °F 16% 30.21 in 10.0 mi North 12.7 mph 18.4 mph N/A   Clear
3:53 PM 52.0 °F - 3.9 °F 14% 30.20 in 10.0 mi NE 16.1 mph - N/A   Clear
4:53 PM 52.0 °F - 6.1 °F 16% 30.19 in 10.0 mi NE 13.8 mph 18.4 mph N/A   Clear
5:53 PM 48.0 °F - 6.1 °F 18% 30.24 in 10.0 mi NNE 10.4 mph - N/A   Clear
6:53 PM 39.9 °F 35.1 °F 6.1 °F 25% 30.33 in 10.0 mi North 6.9 mph - N/A   Clear
7:53 PM 36.0 °F 31.1 °F 6.1 °F 29% 30.35 in 10.0 mi NW 5.8 mph - N/A   Clear
8:53 PM 37.0 °F 28.5 °F 8.1 °F 30% 30.33 in 10.0 mi North 13.8 mph - N/A   Clear
9:53 PM 33.1 °F 24.9 °F 8.1 °F 35% 30.34 in 10.0 mi NNW 10.4 mph - N/A   Clear
10:53 PM 32.0 °F 23.6 °F 8.1 °F 37% 30.35 in 10.0 mi North 10.4 mph - N/A   Clear
11:53 PM 30.0 °F 21.1 °F 9.0 °F 41% 30.33 in 10.0 mi NNW 10.4 mph - N/A   Clear